Find Starlink 34215

NORAD ID: 64252 Int'l Des: 2025-119 Owner: SPXS Country: US Constellation: starlink operational
LEOCIRCULAR

現在のビュー

3D地球を読み込み中...

About Starlink 34215

Starlink 34215 (NORAD 64252) is a starlink constellation satellite (v2 mini) launched Jun 3, 2025 by SPXS of US. It operates in LEO, CIRCULAR orbit with a mass of 575.00 kg.

次回通過

Passes for default location (London). Set your location on the main map for personalized predictions.

高度履歴

Loading altitude history...

軌道要素

1 64252U 25119V 26238.59144165 .00018486 00000-0 67953-3 0 9993
2 64252 43.0022 67.5286 0001389 241.5566 118.5146 15.27584142 70154
Epoch: Aug 26, 2026 • Age: 7 hours

現在のステータス

高度 487.0 km
遠地点 / 近地点 N/A
速度 7.63 km/s
衛星直下点 43.16°N, 131.81°W
打ち上げ日 Jun 3, 2025
運用期間 1.2 years
タイプ internet

技術仕様

分類 Payload
質量 575.00 kg
乾燥質量 530.00 kg
総質量 575.00 kg
長さ 0.30 m
直径 4.10 m
スパン 29.00 m
形状 Box + pan
製造者 SPXS
バスタイプ Starlink V2MO
フェーズステータス In Orbit
所有者/国 SPXS/US

Most Searched